Year,Month,Day,Hour,Minute,Value (Times are PST for insolation in W/m^2)
2016,10,03,00,00,0.00
2016,10,03,00,01,0.00
2016,10,03,00,02,0.00
2016,10,03,00,03,0.00
2016,10,03,00,04,0.00
2016,10,03,00,05,0.00
2016,10,03,00,06,0.00
2016,10,03,00,07,0.00
2016,10,03,00,08,0.00
2016,10,03,00,09,0.00
2016,10,03,00,10,0.00
2016,10,03,00,11,0.00
2016,10,03,00,12,0.00
2016,10,03,00,13,0.00
2016,10,03,00,14,0.00
2016,10,03,00,15,0.00
2016,10,03,00,16,0.00
2016,10,03,00,17,0.00
2016,10,03,00,18,0.00
2016,10,03,00,19,0.00
2016,10,03,00,20,0.00
2016,10,03,00,21,0.00
2016,10,03,00,22,0.00
2016,10,03,00,23,0.00
2016,10,03,00,24,0.00
2016,10,03,00,25,0.00
2016,10,03,00,26,0.00
2016,10,03,00,27,0.00
2016,10,03,00,28,0.00
2016,10,03,00,29,0.00
2016,10,03,00,30,0.00
2016,10,03,00,31,0.00
2016,10,03,00,32,0.00
2016,10,03,00,33,0.00
2016,10,03,00,34,0.00
2016,10,03,00,35,0.00
2016,10,03,00,36,0.00
2016,10,03,00,37,0.00
2016,10,03,00,38,0.00
2016,10,03,00,39,0.00
2016,10,03,00,40,0.00
2016,10,03,00,41,0.00
2016,10,03,00,42,0.00
2016,10,03,00,43,0.00
2016,10,03,00,44,0.00
2016,10,03,00,45,0.00
2016,10,03,00,46,0.00
2016,10,03,00,47,0.00
2016,10,03,00,48,0.00
2016,10,03,00,49,0.00
2016,10,03,00,50,0.00
2016,10,03,00,51,0.00
2016,10,03,00,52,0.00
2016,10,03,00,53,0.00
2016,10,03,00,54,0.00
2016,10,03,00,55,0.00
2016,10,03,00,56,0.00
2016,10,03,00,57,0.00
2016,10,03,00,58,0.00
2016,10,03,00,59,0.00
2016,10,03,01,00,0.00
2016,10,03,01,01,0.00
2016,10,03,01,02,0.00
2016,10,03,01,03,0.00
2016,10,03,01,04,0.00
2016,10,03,01,05,0.00
2016,10,03,01,06,0.00
2016,10,03,01,07,0.00
2016,10,03,01,08,0.00
2016,10,03,01,09,0.00
2016,10,03,01,10,0.00
2016,10,03,01,11,0.00
2016,10,03,01,12,0.00
2016,10,03,01,13,0.00
2016,10,03,01,14,0.00
2016,10,03,01,15,0.00
2016,10,03,01,16,0.00
2016,10,03,01,17,0.00
2016,10,03,01,18,0.00
2016,10,03,01,19,0.00
2016,10,03,01,20,0.00
2016,10,03,01,21,0.00
2016,10,03,01,22,0.00
2016,10,03,01,23,0.00
2016,10,03,01,24,0.00
2016,10,03,01,25,0.00
2016,10,03,01,26,0.00
2016,10,03,01,27,0.00
2016,10,03,01,28,0.00
2016,10,03,01,29,0.00
2016,10,03,01,30,0.00
2016,10,03,01,31,0.00
2016,10,03,01,32,0.00
2016,10,03,01,33,0.00
2016,10,03,01,34,0.00
2016,10,03,01,35,0.00
2016,10,03,01,36,0.00
2016,10,03,01,37,0.00
2016,10,03,01,38,0.00
2016,10,03,01,39,0.00
2016,10,03,01,40,0.00
2016,10,03,01,41,0.00
2016,10,03,01,42,0.00
2016,10,03,01,43,0.00
2016,10,03,01,44,0.00
2016,10,03,01,45,0.00
2016,10,03,01,46,0.00
2016,10,03,01,47,0.00
2016,10,03,01,48,0.00
2016,10,03,01,49,0.00
2016,10,03,01,50,0.00
2016,10,03,01,51,0.00
2016,10,03,01,52,0.00
2016,10,03,01,53,0.00
2016,10,03,01,54,0.00
2016,10,03,01,55,0.00
2016,10,03,01,56,0.00
2016,10,03,01,57,0.00
2016,10,03,01,58,0.00
2016,10,03,01,59,0.00
2016,10,03,02,00,0.00
2016,10,03,02,01,0.00
2016,10,03,02,02,0.00
2016,10,03,02,03,0.00
2016,10,03,02,04,0.00
2016,10,03,02,05,0.00
2016,10,03,02,06,0.00
2016,10,03,02,07,0.00
2016,10,03,02,08,0.00
2016,10,03,02,09,0.00
2016,10,03,02,10,0.00
2016,10,03,02,11,0.00
2016,10,03,02,12,0.00
2016,10,03,02,13,0.00
2016,10,03,02,14,0.00
2016,10,03,02,15,0.00
2016,10,03,02,16,0.00
2016,10,03,02,17,0.00
2016,10,03,02,18,0.00
2016,10,03,02,19,0.00
2016,10,03,02,20,0.00
2016,10,03,02,21,0.00
2016,10,03,02,22,0.00
2016,10,03,02,23,0.00
2016,10,03,02,24,0.00
2016,10,03,02,25,0.00
2016,10,03,02,26,0.00
2016,10,03,02,27,0.00
2016,10,03,02,28,0.00
2016,10,03,02,29,0.00
2016,10,03,02,30,0.00
2016,10,03,02,31,0.00
2016,10,03,02,32,0.00
2016,10,03,02,33,0.00
2016,10,03,02,34,0.00
2016,10,03,02,35,0.00
2016,10,03,02,36,0.00
2016,10,03,02,37,0.00
2016,10,03,02,38,0.00
2016,10,03,02,39,0.00
2016,10,03,02,40,0.00
2016,10,03,02,41,0.00
2016,10,03,02,42,0.00
2016,10,03,02,43,0.00
2016,10,03,02,44,0.00
2016,10,03,02,45,0.00
2016,10,03,02,46,0.00
2016,10,03,02,47,0.00
2016,10,03,02,48,0.00
2016,10,03,02,49,0.00
2016,10,03,02,50,0.00
2016,10,03,02,51,0.00
2016,10,03,02,52,0.00
2016,10,03,02,53,0.00
2016,10,03,02,54,0.00
2016,10,03,02,55,0.00
2016,10,03,02,56,0.00
2016,10,03,02,57,0.00
2016,10,03,02,58,0.00
2016,10,03,02,59,0.00
2016,10,03,03,00,0.00
2016,10,03,03,01,0.00
2016,10,03,03,02,0.00
2016,10,03,03,03,0.00
2016,10,03,03,04,0.00
2016,10,03,03,05,0.00
2016,10,03,03,06,0.00
2016,10,03,03,07,0.00
2016,10,03,03,08,0.00
2016,10,03,03,09,0.00
2016,10,03,03,10,0.00
2016,10,03,03,11,0.00
2016,10,03,03,12,0.00
2016,10,03,03,13,0.00
2016,10,03,03,14,0.00
2016,10,03,03,15,0.00
2016,10,03,03,16,0.00
2016,10,03,03,17,0.00
2016,10,03,03,18,0.00
2016,10,03,03,19,0.00
2016,10,03,03,20,0.00
2016,10,03,03,21,0.00
2016,10,03,03,22,0.00
2016,10,03,03,23,0.00
2016,10,03,03,24,0.00
2016,10,03,03,25,0.00
2016,10,03,03,26,0.00
2016,10,03,03,27,0.00
2016,10,03,03,28,0.00
2016,10,03,03,29,0.00
2016,10,03,03,30,0.00
2016,10,03,03,31,0.00
2016,10,03,03,32,0.00
2016,10,03,03,33,0.00
2016,10,03,03,34,0.00
2016,10,03,03,35,0.00
2016,10,03,03,36,0.00
2016,10,03,03,37,0.00
2016,10,03,03,38,0.00
2016,10,03,03,39,0.00
2016,10,03,03,40,0.00
2016,10,03,03,41,0.00
2016,10,03,03,42,0.00
2016,10,03,03,43,0.00
2016,10,03,03,44,0.00
2016,10,03,03,45,0.00
2016,10,03,03,46,0.00
2016,10,03,03,47,0.00
2016,10,03,03,48,0.00
2016,10,03,03,49,0.00
2016,10,03,03,50,0.00
2016,10,03,03,51,0.00
2016,10,03,03,52,0.00
2016,10,03,03,53,0.00
2016,10,03,03,54,0.00
2016,10,03,03,55,0.00
2016,10,03,03,56,0.00
2016,10,03,03,57,0.00
2016,10,03,03,58,0.00
2016,10,03,03,59,0.00
2016,10,03,04,00,0.00
2016,10,03,04,01,0.00
2016,10,03,04,02,0.00
2016,10,03,04,03,0.00
2016,10,03,04,04,0.00
2016,10,03,04,05,0.00
2016,10,03,04,06,0.00
2016,10,03,04,07,0.00
2016,10,03,04,08,0.00
2016,10,03,04,09,0.00
2016,10,03,04,10,0.00
2016,10,03,04,11,0.00
2016,10,03,04,12,0.00
2016,10,03,04,13,0.00
2016,10,03,04,14,0.00
2016,10,03,04,15,0.00
2016,10,03,04,16,0.00
2016,10,03,04,17,0.00
2016,10,03,04,18,0.00
2016,10,03,04,19,0.00
2016,10,03,04,20,0.00
2016,10,03,04,21,0.00
2016,10,03,04,22,0.00
2016,10,03,04,23,0.00
2016,10,03,04,24,0.00
2016,10,03,04,25,0.00
2016,10,03,04,26,0.00
2016,10,03,04,27,0.00
2016,10,03,04,28,0.00
2016,10,03,04,29,0.00
2016,10,03,04,30,0.00
2016,10,03,04,31,0.00
2016,10,03,04,32,0.00
2016,10,03,04,33,0.00
2016,10,03,04,34,0.00
2016,10,03,04,35,0.00
2016,10,03,04,36,0.00
2016,10,03,04,37,0.00
2016,10,03,04,38,0.00
2016,10,03,04,39,0.00
2016,10,03,04,40,0.00
2016,10,03,04,41,0.00
2016,10,03,04,42,0.00
2016,10,03,04,43,0.00
2016,10,03,04,44,0.00
2016,10,03,04,45,0.00
2016,10,03,04,46,0.00
2016,10,03,04,47,0.00
2016,10,03,04,48,0.00
2016,10,03,04,49,0.00
2016,10,03,04,50,0.00
2016,10,03,04,51,0.00
2016,10,03,04,52,0.00
2016,10,03,04,53,0.00
2016,10,03,04,54,0.00
2016,10,03,04,55,0.00
2016,10,03,04,56,0.00
2016,10,03,04,57,0.00
2016,10,03,04,58,0.00
2016,10,03,04,59,0.00
2016,10,03,05,00,0.00
2016,10,03,05,01,0.00
2016,10,03,05,02,0.00
2016,10,03,05,03,0.00
2016,10,03,05,04,0.00
2016,10,03,05,05,0.00
2016,10,03,05,06,0.00
2016,10,03,05,07,0.00
2016,10,03,05,08,0.00
2016,10,03,05,09,0.00
2016,10,03,05,10,0.00
2016,10,03,05,11,0.00
2016,10,03,05,12,0.00
2016,10,03,05,13,0.00
2016,10,03,05,14,0.00
2016,10,03,05,15,0.00
2016,10,03,05,16,0.00
2016,10,03,05,17,0.00
2016,10,03,05,18,0.00
2016,10,03,05,19,0.00
2016,10,03,05,20,0.00
2016,10,03,05,21,0.00
2016,10,03,05,22,0.00
2016,10,03,05,23,0.00
2016,10,03,05,24,0.00
2016,10,03,05,25,0.00
2016,10,03,05,26,0.00
2016,10,03,05,27,0.00
2016,10,03,05,28,0.00
2016,10,03,05,29,0.00
2016,10,03,05,30,0.00
2016,10,03,05,31,0.00
2016,10,03,05,32,0.00
2016,10,03,05,33,0.00
2016,10,03,05,34,0.00
2016,10,03,05,35,0.00
2016,10,03,05,36,0.00
2016,10,03,05,37,0.00
2016,10,03,05,38,0.00
2016,10,03,05,39,0.00
2016,10,03,05,40,0.00
2016,10,03,05,41,0.00
2016,10,03,05,42,0.00
2016,10,03,05,43,0.00
2016,10,03,05,44,0.00
2016,10,03,05,45,0.00
2016,10,03,05,46,0.00
2016,10,03,05,47,0.00
2016,10,03,05,48,0.00
2016,10,03,05,49,0.00
2016,10,03,05,50,0.00
2016,10,03,05,51,0.00
2016,10,03,05,52,0.00
2016,10,03,05,53,0.00
2016,10,03,05,54,0.00
2016,10,03,05,55,0.00
2016,10,03,05,56,0.00
2016,10,03,05,57,0.00
2016,10,03,05,58,0.00
2016,10,03,05,59,0.00
2016,10,03,06,00,0.00
2016,10,03,06,01,0.00
2016,10,03,06,02,0.00
2016,10,03,06,03,0.00
2016,10,03,06,04,0.00
2016,10,03,06,05,0.00
2016,10,03,06,06,0.00
2016,10,03,06,07,0.00
2016,10,03,06,08,0.00
2016,10,03,06,09,0.00
2016,10,03,06,10,0.00
2016,10,03,06,11,0.00
2016,10,03,06,12,0.00
2016,10,03,06,13,0.00
2016,10,03,06,14,0.00
2016,10,03,06,15,0.00
2016,10,03,06,16,0.00
2016,10,03,06,17,0.00
2016,10,03,06,18,0.00
2016,10,03,06,19,0.00
2016,10,03,06,20,0.00
2016,10,03,06,21,0.00
2016,10,03,06,22,0.00
2016,10,03,06,23,0.00
2016,10,03,06,24,0.00
2016,10,03,06,25,0.00
2016,10,03,06,26,0.00
2016,10,03,06,27,0.00
2016,10,03,06,28,0.00
2016,10,03,06,29,0.00
2016,10,03,06,30,0.00
2016,10,03,06,31,0.00
2016,10,03,06,32,0.00
2016,10,03,06,33,0.00
2016,10,03,06,34,0.00
2016,10,03,06,35,0.00
2016,10,03,06,36,0.00
2016,10,03,06,37,0.00
2016,10,03,06,38,0.00
2016,10,03,06,39,0.00
2016,10,03,06,40,0.00
2016,10,03,06,41,0.00
2016,10,03,06,42,0.00
2016,10,03,06,43,0.00
2016,10,03,06,44,0.00
2016,10,03,06,45,0.00
2016,10,03,06,46,0.00
2016,10,03,06,47,0.00
2016,10,03,06,48,0.00
2016,10,03,06,49,0.00
2016,10,03,06,50,0.00
2016,10,03,06,51,0.00
2016,10,03,06,52,0.00
2016,10,03,06,53,0.00
2016,10,03,06,54,0.00
2016,10,03,06,55,0.00
2016,10,03,06,56,0.00
2016,10,03,06,57,0.00
2016,10,03,06,58,0.00
2016,10,03,06,59,0.00
2016,10,03,07,00,0.00
2016,10,03,07,01,0.00
2016,10,03,07,02,0.00
2016,10,03,07,03,0.00
2016,10,03,07,04,0.00
2016,10,03,07,05,0.00
2016,10,03,07,06,0.00
2016,10,03,07,07,0.00
2016,10,03,07,08,0.00
2016,10,03,07,09,0.00
2016,10,03,07,10,0.00
2016,10,03,07,11,0.00
2016,10,03,07,12,0.00
2016,10,03,07,13,0.00
2016,10,03,07,14,0.00
2016,10,03,07,15,0.00
2016,10,03,07,16,0.00
2016,10,03,07,17,0.00
2016,10,03,07,18,0.00
2016,10,03,07,19,0.00
2016,10,03,07,20,0.00
2016,10,03,07,21,0.00
2016,10,03,07,22,0.00
2016,10,03,07,23,0.00
2016,10,03,07,24,0.00
2016,10,03,07,25,0.00
2016,10,03,07,26,0.00
2016,10,03,07,27,0.00
2016,10,03,07,28,0.00
2016,10,03,07,29,0.00
2016,10,03,07,30,0.00
2016,10,03,07,31,0.00
2016,10,03,07,32,0.00
2016,10,03,07,33,0.00
2016,10,03,07,34,0.00
2016,10,03,07,35,0.00
2016,10,03,07,36,0.00
2016,10,03,07,37,0.00
2016,10,03,07,38,0.00
2016,10,03,07,39,0.00
2016,10,03,07,40,0.00
2016,10,03,07,41,0.00
2016,10,03,07,42,0.00
2016,10,03,07,43,0.00
2016,10,03,07,44,0.00
2016,10,03,07,45,0.00
2016,10,03,07,46,0.00
2016,10,03,07,47,0.00
2016,10,03,07,48,0.00
2016,10,03,07,49,0.00
2016,10,03,07,50,0.00
2016,10,03,07,51,0.00
2016,10,03,07,52,0.00
2016,10,03,07,53,0.00
2016,10,03,07,54,4.00
2016,10,03,07,55,5.00
2016,10,03,07,56,5.00
2016,10,03,07,57,5.00
2016,10,03,07,58,5.00
2016,10,03,07,59,5.00
2016,10,03,08,00,5.00
2016,10,03,08,01,5.00
2016,10,03,08,02,5.00
2016,10,03,08,03,5.00
2016,10,03,08,04,5.00
2016,10,03,08,05,5.00
2016,10,03,08,06,5.00
2016,10,03,08,07,5.00
2016,10,03,08,08,5.20
2016,10,03,08,09,7.00
2016,10,03,08,10,7.00
2016,10,03,08,11,7.00
2016,10,03,08,12,7.90
2016,10,03,08,13,9.00
2016,10,03,08,14,9.00
2016,10,03,08,15,9.00
2016,10,03,08,16,9.00
2016,10,03,08,17,9.00
2016,10,03,08,18,10.90
2016,10,03,08,19,11.00
2016,10,03,08,20,11.20
2016,10,03,08,21,11.70
2016,10,03,08,22,11.00
2016,10,03,08,23,11.00
2016,10,03,08,24,11.00
2016,10,03,08,25,11.00
2016,10,03,08,26,11.00
2016,10,03,08,27,11.00
2016,10,03,08,28,11.90
2016,10,03,08,29,12.10
2016,10,03,08,30,14.00
2016,10,03,08,31,14.00
2016,10,03,08,32,14.00
2016,10,03,08,33,14.70
2016,10,03,08,34,16.00
2016,10,03,08,35,16.00
2016,10,03,08,36,16.00
2016,10,03,08,37,16.00
2016,10,03,08,38,17.50
2016,10,03,08,39,18.00
2016,10,03,08,40,19.00
2016,10,03,08,41,21.00
2016,10,03,08,42,21.40
2016,10,03,08,43,23.60
2016,10,03,08,44,25.00
2016,10,03,08,45,25.00
2016,10,03,08,46,25.00
2016,10,03,08,47,25.00
2016,10,03,08,48,27.10
2016,10,03,08,49,29.50
2016,10,03,08,50,31.70
2016,10,03,08,51,35.00
2016,10,03,08,52,38.80
2016,10,03,08,53,37.60
2016,10,03,08,54,41.00
2016,10,03,08,55,44.00
2016,10,03,08,56,44.00
2016,10,03,08,57,45.10
2016,10,03,08,58,46.00
2016,10,03,08,59,46.70
2016,10,03,09,00,47.00
2016,10,03,09,01,48.70
2016,10,03,09,02,49.00
2016,10,03,09,03,49.60
2016,10,03,09,04,53.20
2016,10,03,09,05,54.00
2016,10,03,09,06,54.00
2016,10,03,09,07,53.50
2016,10,03,09,08,51.90
2016,10,03,09,09,49.70
2016,10,03,09,10,49.00
2016,10,03,09,11,49.00
2016,10,03,09,12,49.00
2016,10,03,09,13,51.00
2016,10,03,09,14,53.30
2016,10,03,09,15,56.80
2016,10,03,09,16,60.50
2016,10,03,09,17,62.00
2016,10,03,09,18,62.00
2016,10,03,09,19,62.00
2016,10,03,09,20,60.70
2016,10,03,09,21,58.60
2016,10,03,09,22,56.50
2016,10,03,09,23,56.00
2016,10,03,09,24,58.00
2016,10,03,09,25,60.20
2016,10,03,09,26,62.60
2016,10,03,09,27,66.10
2016,10,03,09,28,69.00
2016,10,03,09,29,72.30
2016,10,03,09,30,77.50
2016,10,03,09,31,81.40
2016,10,03,09,32,86.50
2016,10,03,09,33,89.50
2016,10,03,09,34,90.80
2016,10,03,09,35,90.10
2016,10,03,09,36,87.80
2016,10,03,09,37,85.60
2016,10,03,09,38,84.00
2016,10,03,09,39,84.70
2016,10,03,09,40,87.80
2016,10,03,09,41,91.70
2016,10,03,09,42,94.20
2016,10,03,09,43,97.10
2016,10,03,09,44,99.60
2016,10,03,09,45,103.40
2016,10,03,09,46,105.10
2016,10,03,09,47,107.40
2016,10,03,09,48,111.60
2016,10,03,09,49,114.00
2016,10,03,09,50,114.00
2016,10,03,09,51,114.90
2016,10,03,09,52,114.30
2016,10,03,09,53,111.80
2016,10,03,09,54,113.10
2016,10,03,09,55,119.60
2016,10,03,09,56,126.10
2016,10,03,09,57,134.00
2016,10,03,09,58,142.30
2016,10,03,09,59,155.00
2016,10,03,10,00,165.70
2016,10,03,10,01,172.00
2016,10,03,10,02,178.30
2016,10,03,10,03,188.20
2016,10,03,10,04,194.20
2016,10,03,10,05,206.80
2016,10,03,10,06,256.00
2016,10,03,10,07,236.10
2016,10,03,10,08,229.10
2016,10,03,10,09,231.10
2016,10,03,10,10,238.80
2016,10,03,10,11,260.40
2016,10,03,10,12,284.00
2016,10,03,10,13,276.20
2016,10,03,10,14,276.00
2016,10,03,10,15,267.00
2016,10,03,10,16,306.20
2016,10,03,10,17,268.60
2016,10,03,10,18,238.90
2016,10,03,10,19,234.30
2016,10,03,10,20,272.40
2016,10,03,10,21,258.00
2016,10,03,10,22,246.20
2016,10,03,10,23,211.70
2016,10,03,10,24,213.00
2016,10,03,10,25,214.60
2016,10,03,10,26,216.00
2016,10,03,10,27,218.80
2016,10,03,10,28,222.40
2016,10,03,10,29,220.40
2016,10,03,10,30,218.40
2016,10,03,10,31,223.20
2016,10,03,10,32,225.00
2016,10,03,10,33,228.50
2016,10,03,10,34,242.10
2016,10,03,10,35,250.20
2016,10,03,10,36,254.10
2016,10,03,10,37,253.80
2016,10,03,10,38,256.50
2016,10,03,10,39,265.20
2016,10,03,10,40,277.20
2016,10,03,10,41,274.50
2016,10,03,10,42,278.10
2016,10,03,10,43,285.80
2016,10,03,10,44,325.90
2016,10,03,10,45,354.60
2016,10,03,10,46,321.20
2016,10,03,10,47,292.00
2016,10,03,10,48,288.00
2016,10,03,10,49,339.80
2016,10,03,10,50,332.40
2016,10,03,10,51,326.70
2016,10,03,10,52,335.50
2016,10,03,10,53,489.50
2016,10,03,10,54,431.00
2016,10,03,10,55,431.00
2016,10,03,10,56,431.00
2016,10,03,10,57,431.00
2016,10,03,10,58,410.50
2016,10,03,10,59,360.90
2016,10,03,11,00,352.80
2016,10,03,11,01,357.00
2016,10,03,11,02,357.00
2016,10,03,11,03,360.70
2016,10,03,11,04,426.20
2016,10,03,11,05,353.00
2016,10,03,11,06,357.00
2016,10,03,11,07,392.30
2016,10,03,11,08,418.40
2016,10,03,11,09,364.40
2016,10,03,11,10,366.20
2016,10,03,11,11,381.90
2016,10,03,11,12,443.20
2016,10,03,11,13,462.00
2016,10,03,11,14,462.00
2016,10,03,11,15,462.00
2016,10,03,11,16,486.40
2016,10,03,11,17,584.00
2016,10,03,11,18,628.10
2016,10,03,11,19,710.00
2016,10,03,11,20,584.50
2016,10,03,11,21,459.00
2016,10,03,11,22,600.40
2016,10,03,11,23,722.60
2016,10,03,11,24,738.00
2016,10,03,11,25,738.00
2016,10,03,11,26,960.00
2016,10,03,11,27,960.00
2016,10,03,11,28,946.20
2016,10,03,11,29,935.00
2016,10,03,11,30,974.00
2016,10,03,11,31,974.00
2016,10,03,11,32,974.00
2016,10,03,11,33,586.20
2016,10,03,11,34,448.00
2016,10,03,11,35,455.00
2016,10,03,11,36,449.20
2016,10,03,11,37,336.40
2016,10,03,11,38,307.80
2016,10,03,11,39,291.20
2016,10,03,11,40,290.50
2016,10,03,11,41,258.40
2016,10,03,11,42,243.60
2016,10,03,11,43,245.30
2016,10,03,11,44,249.50
2016,10,03,11,45,223.40
2016,10,03,11,46,190.50
2016,10,03,11,47,178.10
2016,10,03,11,48,171.90
2016,10,03,11,49,174.20
2016,10,03,11,50,189.90
2016,10,03,11,51,199.00
2016,10,03,11,52,199.00
2016,10,03,11,53,199.00
2016,10,03,11,54,186.40
2016,10,03,11,55,181.50
2016,10,03,11,56,198.80
2016,10,03,11,57,221.90
2016,10,03,11,58,232.60
2016,10,03,11,59,213.00
2016,10,03,12,00,184.00
2016,10,03,12,01,176.60
2016,10,03,12,02,178.00
2016,10,03,12,03,186.60
2016,10,03,12,04,198.10
2016,10,03,12,05,199.00
2016,10,03,12,06,203.90
2016,10,03,12,07,214.00
2016,10,03,12,08,211.80
2016,10,03,12,09,216.30
2016,10,03,12,10,227.00
2016,10,03,12,11,228.80
2016,10,03,12,12,233.30
2016,10,03,12,13,220.70
2016,10,03,12,14,212.10
2016,10,03,12,15,216.00
2016,10,03,12,16,213.00
2016,10,03,12,17,220.80
2016,10,03,12,18,221.80
2016,10,03,12,19,220.10
2016,10,03,12,20,222.80
2016,10,03,12,21,221.20
2016,10,03,12,22,222.00
2016,10,03,12,23,217.40
2016,10,03,12,24,216.00
2016,10,03,12,25,213.80
2016,10,03,12,26,204.90
2016,10,03,12,27,200.00
2016,10,03,12,28,199.30
2016,10,03,12,29,199.00
2016,10,03,12,30,203.50
2016,10,03,12,31,211.10
2016,10,03,12,32,221.20
2016,10,03,12,33,233.30
2016,10,03,12,34,241.10
2016,10,03,12,35,246.80
2016,10,03,12,36,252.10
2016,10,03,12,37,263.00
2016,10,03,12,38,274.40
2016,10,03,12,39,280.10
2016,10,03,12,40,281.00
2016,10,03,12,41,449.40
2016,10,03,12,42,466.90
2016,10,03,12,43,292.40
2016,10,03,12,44,279.80
2016,10,03,12,45,276.70
2016,10,03,12,46,254.80
2016,10,03,12,47,238.90
2016,10,03,12,48,230.10
2016,10,03,12,49,227.00
2016,10,03,12,50,220.70
2016,10,03,12,51,207.50
2016,10,03,12,52,192.10
2016,10,03,12,53,179.50
2016,10,03,12,54,178.10
2016,10,03,12,55,180.20
2016,10,03,12,56,186.30
2016,10,03,12,57,188.20
2016,10,03,12,58,182.30
2016,10,03,12,59,179.00
2016,10,03,13,00,181.40
2016,10,03,13,01,191.40
2016,10,03,13,02,195.00
2016,10,03,13,03,190.80
2016,10,03,13,04,190.00
2016,10,03,13,05,180.80
2016,10,03,13,06,180.30
2016,10,03,13,07,188.70
2016,10,03,13,08,201.30
2016,10,03,13,09,219.30
2016,10,03,13,10,247.40
2016,10,03,13,11,264.00
2016,10,03,13,12,315.80
2016,10,03,13,13,379.60
2016,10,03,13,14,395.10
2016,10,03,13,15,386.60
2016,10,03,13,16,353.00
2016,10,03,13,17,374.20
2016,10,03,13,18,433.50
2016,10,03,13,19,370.00
2016,10,03,13,20,378.40
2016,10,03,13,21,396.00
2016,10,03,13,22,368.40
2016,10,03,13,23,341.60
2016,10,03,13,24,361.20
2016,10,03,13,25,367.00
2016,10,03,13,26,295.20
2016,10,03,13,27,240.40
2016,10,03,13,28,201.00
2016,10,03,13,29,165.70
2016,10,03,13,30,157.30
2016,10,03,13,31,160.90
2016,10,03,13,32,176.90
2016,10,03,13,33,194.50
2016,10,03,13,34,201.40
2016,10,03,13,35,202.00
2016,10,03,13,36,211.80
2016,10,03,13,37,209.40
2016,10,03,13,38,212.40
2016,10,03,13,39,204.20
2016,10,03,13,40,190.00
2016,10,03,13,41,183.70
2016,10,03,13,42,188.10
2016,10,03,13,43,196.40
2016,10,03,13,44,209.60
2016,10,03,13,45,219.40
2016,10,03,13,46,220.20
2016,10,03,13,47,227.60
2016,10,03,13,48,223.20
2016,10,03,13,49,220.20
2016,10,03,13,50,210.20
2016,10,03,13,51,200.50
2016,10,03,13,52,208.20
2016,10,03,13,53,213.80
2016,10,03,13,54,209.90
2016,10,03,13,55,209.00
2016,10,03,13,56,197.10
2016,10,03,13,57,180.80
2016,10,03,13,58,180.60
2016,10,03,13,59,193.20
2016,10,03,14,00,210.60
2016,10,03,14,01,226.90
2016,10,03,14,02,241.50
2016,10,03,14,03,256.70
2016,10,03,14,04,260.00
2016,10,03,14,05,257.50
2016,10,03,14,06,264.60
2016,10,03,14,07,274.30
2016,10,03,14,08,272.80
2016,10,03,14,09,267.50
2016,10,03,14,10,264.10
2016,10,03,14,11,267.90
2016,10,03,14,12,276.90
2016,10,03,14,13,281.00
2016,10,03,14,14,289.40
2016,10,03,14,15,306.00
2016,10,03,14,16,309.00
2016,10,03,14,17,308.40
2016,10,03,14,18,306.60
2016,10,03,14,19,300.70
2016,10,03,14,20,294.70
2016,10,03,14,21,292.00
2016,10,03,14,22,289.80
2016,10,03,14,23,287.80
2016,10,03,14,24,285.40
2016,10,03,14,25,279.80
2016,10,03,14,26,278.00
2016,10,03,14,27,278.00
2016,10,03,14,28,275.40
2016,10,03,14,29,270.50
2016,10,03,14,30,262.10
2016,10,03,14,31,248.10
2016,10,03,14,32,232.60
2016,10,03,14,33,230.00
2016,10,03,14,34,227.70
2016,10,03,14,35,216.80
2016,10,03,14,36,213.60
2016,10,03,14,37,213.00
2016,10,03,14,38,211.90
2016,10,03,14,39,208.00
2016,10,03,14,40,206.00
2016,10,03,14,41,182.00
2016,10,03,14,42,171.60
2016,10,03,14,43,173.50
2016,10,03,14,44,169.20
2016,10,03,14,45,171.60
2016,10,03,14,46,174.00
2016,10,03,14,47,174.00
2016,10,03,14,48,170.90
2016,10,03,14,49,163.10
2016,10,03,14,50,161.20
2016,10,03,14,51,162.00
2016,10,03,14,52,162.00
2016,10,03,14,53,162.90
2016,10,03,14,54,163.30
2016,10,03,14,55,169.50
2016,10,03,14,56,173.60
2016,10,03,14,57,170.20
2016,10,03,14,58,161.20
2016,10,03,14,59,151.90
2016,10,03,15,00,143.10
2016,10,03,15,01,139.00
2016,10,03,15,02,140.40
2016,10,03,15,03,147.40
2016,10,03,15,04,162.60
2016,10,03,15,05,166.90
2016,10,03,15,06,152.50
2016,10,03,15,07,146.20
2016,10,03,15,08,139.00
2016,10,03,15,09,148.20
2016,10,03,15,10,159.30
2016,10,03,15,11,152.10
2016,10,03,15,12,147.20
2016,10,03,15,13,139.70
2016,10,03,15,14,123.40
2016,10,03,15,15,110.70
2016,10,03,15,16,107.10
2016,10,03,15,17,107.00
2016,10,03,15,18,107.40
2016,10,03,15,19,111.70
2016,10,03,15,20,119.20
2016,10,03,15,21,121.90
2016,10,03,15,22,125.60
2016,10,03,15,23,130.40
2016,10,03,15,24,138.70
2016,10,03,15,25,145.20
2016,10,03,15,26,140.10
2016,10,03,15,27,135.20
2016,10,03,15,28,134.00
2016,10,03,15,29,133.20
2016,10,03,15,30,130.00
2016,10,03,15,31,128.20
2016,10,03,15,32,124.20
2016,10,03,15,33,125.10
2016,10,03,15,34,127.70
2016,10,03,15,35,127.30
2016,10,03,15,36,127.00
2016,10,03,15,37,127.00
2016,10,03,15,38,122.90
2016,10,03,15,39,117.70
2016,10,03,15,40,116.00
2016,10,03,15,41,116.00
2016,10,03,15,42,115.30
2016,10,03,15,43,114.00
2016,10,03,15,44,114.00
2016,10,03,15,45,114.00
2016,10,03,15,46,112.00
2016,10,03,15,47,109.40
2016,10,03,15,48,109.00
2016,10,03,15,49,111.20
2016,10,03,15,50,118.30
2016,10,03,15,51,121.70
2016,10,03,15,52,125.00
2016,10,03,15,53,124.30
2016,10,03,15,54,120.20
2016,10,03,15,55,113.40
2016,10,03,15,56,107.00
2016,10,03,15,57,104.70
2016,10,03,15,58,112.00
2016,10,03,15,59,119.20
2016,10,03,16,00,121.00
2016,10,03,16,01,121.00
2016,10,03,16,02,121.00
2016,10,03,16,03,121.00
2016,10,03,16,04,121.00
2016,10,03,16,05,121.00
2016,10,03,16,06,121.00
2016,10,03,16,07,121.00
2016,10,03,16,08,121.00
2016,10,03,16,09,122.50
2016,10,03,16,10,123.00
2016,10,03,16,11,124.80
2016,10,03,16,12,125.00
2016,10,03,16,13,125.00
2016,10,03,16,14,125.00
2016,10,03,16,15,124.20
2016,10,03,16,16,123.00
2016,10,03,16,17,121.30
2016,10,03,16,18,118.80
2016,10,03,16,19,116.60
2016,10,03,16,20,113.60
2016,10,03,16,21,111.30
2016,10,03,16,22,109.00
2016,10,03,16,23,106.80
2016,10,03,16,24,105.00
2016,10,03,16,25,104.80
2016,10,03,16,26,104.00
2016,10,03,16,27,103.20
2016,10,03,16,28,100.00
2016,10,03,16,29,96.30
2016,10,03,16,30,92.20
2016,10,03,16,31,87.00
2016,10,03,16,32,81.80
2016,10,03,16,33,76.90
2016,10,03,16,34,71.70
2016,10,03,16,35,68.20
2016,10,03,16,36,64.10
2016,10,03,16,37,60.60
2016,10,03,16,38,57.10
2016,10,03,16,39,54.90
2016,10,03,16,40,53.40
2016,10,03,16,41,53.00
2016,10,03,16,42,53.00
2016,10,03,16,43,53.00
2016,10,03,16,44,53.00
2016,10,03,16,45,53.10
2016,10,03,16,46,54.00
2016,10,03,16,47,54.00
2016,10,03,16,48,54.00
2016,10,03,16,49,54.00
2016,10,03,16,50,54.00
2016,10,03,16,51,53.40
2016,10,03,16,52,51.60
2016,10,03,16,53,47.80
2016,10,03,16,54,46.20
2016,10,03,16,55,44.00
2016,10,03,16,56,42.00
2016,10,03,16,57,41.50
2016,10,03,16,58,38.50
2016,10,03,16,59,36.20
2016,10,03,17,00,34.10
2016,10,03,17,01,32.50
2016,10,03,17,02,30.70
2016,10,03,17,03,30.00
2016,10,03,17,04,28.40
2016,10,03,17,05,26.30
2016,10,03,17,06,26.00
2016,10,03,17,07,25.90
2016,10,03,17,08,25.00
2016,10,03,17,09,25.00
2016,10,03,17,10,25.00
2016,10,03,17,11,25.00
2016,10,03,17,12,25.00
2016,10,03,17,13,25.00
2016,10,03,17,14,25.00
2016,10,03,17,15,25.00
2016,10,03,17,16,25.00
2016,10,03,17,17,25.00
2016,10,03,17,18,25.00
2016,10,03,17,19,25.00
2016,10,03,17,20,25.00
2016,10,03,17,21,24.20
2016,10,03,17,22,23.00
2016,10,03,17,23,23.00